Meridian, MS

7:18 AM CST on February 07, 2016 (GMT -0600)
Meridian Naval Air Station

Weather History for KNMM - June, 2012

Change the Weather History Date:

Friday, June 1, 2012

  Actual Average Record
Temperature  
Mean Temperature 70 °F -  
Max Temperature 79 °F 82 °F 99 °F (1998)
Min Temperature 61 °F 64 °F 55 °F (1997)
Cooling Degree Days 5    
Growing Degree Days 20 (Base 50)    
Moisture  
Dew Point 61 °F    
Average Humidity 77    
Maximum Humidity 94    
Minimum Humidity 42    
Precipitation  
Precipitation 0.02 in - - ()
Sea Level Pressure  
Sea Level Pressure 29.90 in    
Wind  
Wind Speed 6 mph (WNW)    
Max Wind Speed 13 mph    
Max Gust Speed 20 mph    
Visibility 10 miles    
Events Rain    
Averages and records for this station are not official NWS values.
T = Trace of Precipitation, MM = Missing Value Source: NWS Daily Summary

Daily Weather History Graph

Daily Weather History Graph

Search for Another Location

Airport or City:

Trip Planner

Search our weather history database for the weather conditions in past years. The results will help you decide how hot, cold, wet, or windy it might be!

Date:

Astronomy

Jun. 01, 2012 Rise Set
Actual Time 5:47 AM CDT 7:57 PM CDT
Civil Twilight 5:19 AM CDT 8:25 PM CDT
Nautical Twilight 4:45 AM CDT 8:59 PM CDT
Astronomical Twilight 4:08 AM CDT 9:36 PM CDT
Moon 5:05 PM CDT (6/1) 3:14 AM CDT (6/1)
Length of Visible Light 15h 05m
Length of Day
14h 09m
Waxing Gibbous, 89% of the Moon is Illuminated
Jun 1
Waxing Gibbous
Jun 4
Full
Jun 11
Last Quarter
Jun 19
New
Jun 26
First Quarter

Hourly Weather History & Observations

Time (CDT) Temp. Dew Point Humidity Pressure Visibility Wind Dir Wind Speed Gust Speed Precip Events Conditions
12:41 AM 66.2 °F 64.4 °F 94% 29.83 in 10.0 mi SW 5.8 mph - N/A   Scattered Clouds
12:53 AM 66.2 °F 64.4 °F 94% 29.83 in 10.0 mi South 4.6 mph - N/A   Mostly Cloudy
12:56 AM 66.9 °F 64.9 °F 93% 29.86 in 10.0 mi South 4.6 mph - N/A   Mostly Cloudy
1:56 AM 66.9 °F 64.9 °F 93% 29.83 in 10.0 mi SSW 4.6 mph - 0.00 in   Mostly Cloudy
2:11 AM 66.2 °F 64.4 °F 94% 29.81 in 10.0 mi SSW 4.6 mph - 0.01 in   Scattered Clouds
2:56 AM 66.9 °F 64.9 °F 93% 29.83 in 10.0 mi SW 4.6 mph - 0.01 in Rain Light Rain
3:39 AM 66.2 °F 64.4 °F 94% 29.81 in 10.0 mi SW 4.6 mph - 0.00 in   Partly Cloudy
3:56 AM 66.9 °F 64.9 °F 93% 29.83 in 10.0 mi SW 3.5 mph - 0.00 in   Partly Cloudy
4:56 AM 66.0 °F 64.0 °F 93% 29.82 in 10.0 mi WSW 3.5 mph - N/A   Clear
5:56 AM 66.0 °F 64.0 °F 93% 29.85 in 10.0 mi Calm Calm - N/A   Overcast
6:17 AM 66.2 °F 64.4 °F 94% 29.84 in 10.0 mi WSW 4.6 mph - N/A   Overcast
6:56 AM 66.9 °F 64.0 °F 90% 29.88 in 10.0 mi WSW 5.8 mph - N/A   Overcast
7:24 AM 66.2 °F 64.4 °F 94% 29.87 in 6.0 mi West 4.6 mph - N/A   Overcast
7:28 AM 66.2 °F 64.4 °F 94% 29.87 in 3.0 mi West 4.6 mph - N/A   Overcast
7:56 AM 68.0 °F 64.9 °F 90% 29.91 in 3.0 mi West 8.1 mph - N/A   Overcast
8:26 AM 69.8 °F 64.4 °F 83% 29.89 in 10.0 mi WNW 10.4 mph - N/A   Overcast
8:56 AM 69.1 °F 64.9 °F 87% 29.92 in 10.0 mi NW 6.9 mph - 0.01 in   Overcast
9:49 AM 71.6 °F 64.4 °F 78% 29.90 in 10.0 mi NNW 10.4 mph - N/A   Mostly Cloudy
9:56 AM 72.0 °F 64.0 °F 76% 29.93 in 10.0 mi North 9.2 mph - N/A   Mostly Cloudy
10:32 AM 73.4 °F 62.6 °F 69% 29.91 in 10.0 mi North 10.4 mph - N/A   Mostly Cloudy
10:56 AM 73.0 °F 62.1 °F 68% 29.93 in 10.0 mi North 8.1 mph - N/A   Mostly Cloudy
11:56 AM 73.9 °F 62.1 °F 66% 29.94 in 10.0 mi North 8.1 mph - N/A   Mostly Cloudy
12:56 PM 75.0 °F 59.0 °F 57% 29.94 in 10.0 mi NNW 12.7 mph - N/A   Overcast
1:56 PM 77.0 °F 57.0 °F 50% 29.92 in 10.0 mi North 10.4 mph - N/A   Mostly Cloudy
2:56 PM 78.1 °F 55.0 °F 45% 29.92 in 10.0 mi NW 12.7 mph 19.6 mph N/A   Scattered Clouds
3:56 PM 78.1 °F 55.9 °F 46% 29.91 in 10.0 mi North 8.1 mph - N/A   Scattered Clouds
4:56 PM 78.1 °F 53.1 °F 42% 29.91 in 10.0 mi NNW 11.5 mph - N/A   Clear
5:56 PM 77.0 °F 53.1 °F 43% 29.91 in 10.0 mi NNW 11.5 mph - N/A   Partly Cloudy
6:56 PM 75.0 °F 52.0 °F 44% 29.92 in 10.0 mi NNW 9.2 mph - N/A   Clear
7:56 PM 69.1 °F 55.0 °F 61% 29.95 in 10.0 mi NNW 4.6 mph - N/A   Clear
8:56 PM 66.0 °F 55.0 °F 68% 29.98 in 10.0 mi NNW 4.6 mph - N/A   Clear
9:56 PM 64.0 °F 55.9 °F 75% 30.00 in 10.0 mi NNW 3.5 mph - N/A   Clear
10:56 PM 62.1 °F 55.0 °F 78% 30.00 in 10.0 mi Calm Calm - N/A   Clear
11:56 PM 61.0 °F 55.0 °F 81% 29.99 in 10.0 mi Calm Calm - N/A   Clear